Location: *
(1.3500°S, 147.5000°W)
Time: 19:54:14
(UTC+00:00)

STARLINK-1089 - Pass Details

Date: 07 April 2020
Orbit: 548 x 551 km, 53.0° (Epoch: 28 May)

Event Time Altitude Azimuth Distance (km) Brightness Sun altitude
Rises 04:53:17 0° 311° (NW) 2,705 8.1 -15.3°
Reaches altitude 10° 04:55:39 10° 301° (WNW) 1,814 7.3 -15.9°
Maximum altitude 04:59:24 34° 236° (SW) 914 5.2 -16.9°
Drops below altitude 10° 05:03:10 10° 170° (S) 1,819 6.1 -17.8°
Enters shadow 05:03:47 - 167° (SSE) 2,044 6.3 -18.0°
